This is the latest recevied weather packets stored in our database for station/object NM5PB-13. If no packets are shown the sender has not sent any weather packets the latest 10 day(s).
| Time | Temp. | Humidity | Pressure | Rain* | Wind** | Luminosity | Snow |
|---|---|---|---|---|---|---|---|
| 1777055273 | 16.67° C | 62% | 1009 hPa | 0 mm | - | - | - |
| 1777054369 | 16.67° C | 65% | 1009 hPa | 0 mm | - | - | - |
| 1777053463 | 16.67° C | 65% | 1009 hPa | 0 mm | - | - | - |
| 1777052560 | 16.11° C | 66% | 1009 hPa | 0 mm | - | - | - |
| 1777051657 | 15.56° C | 65% | 1009 hPa | 0 mm | - | - | - |
| 1777050752 | 15.56° C | 66% | 1009 hPa | 0 mm | - | - | - |
| 1777049846 | 15° C | 68% | 1009 hPa | 0 mm | - | - | - |
| 1777048944 | 14.44° C | 70% | 1008 hPa | 0 mm | - | - | - |
| 1777048039 | 14.44° C | 70% | 1008 hPa | 0 mm | - | - | - |
| 1777047135 | 13.89° C | 74% | 1008 hPa | 0 mm | - | - | - |
| 1777046232 | 13.33° C | 72% | 1008 hPa | 0 mm | - | - | - |
| 1777045330 | 12.78° C | 75% | 1008 hPa | 0 mm | - | - | - |
| 1777044426 | 12.22° C | 75% | 1008 hPa | 0 mm | - | - | - |
| 1777043521 | 11.67° C | 75% | 1008 hPa | 0 mm | - | - | - |
| 1777042617 | 11.67° C | 75% | 1008 hPa | 0 mm | - | - | - |
| 1777041713 | 11.67° C | 76% | 1008 hPa | 0 mm | - | - | - |
| 1777040810 | 11.11° C | 76% | 1007 hPa | 0 mm | - | - | - |
| 1777039904 | 10.56° C | 79% | 1007 hPa | 0 mm | - | - | - |
| 1777039000 | 10.56° C | 77% | 1007 hPa | 0 mm | - | - | - |
| 1777038095 | 10.56° C | 79% | 1006 hPa | 0 mm | - | - | - |
| 1777037192 | 10° C | 81% | 1006 hPa | 0 mm | - | - | - |
| 1777036284 | 9.44° C | 82% | 1006 hPa | 0 mm | - | - | - |
| 1777035380 | 9.44° C | 84% | 1006 hPa | 0 mm | - | - | - |
| 1777034471 | 9.44° C | 85% | 1006 hPa | 0 mm | - | - | - |
| 1777033559 | 9.44° C | 86% | 1006 hPa | 0 mm | - | - | - |
* Rain latest hour (hover to see other rain measurements)
** Current wind speed in m/s (hover to see current wind gust speed)